Preview of NWS' New Version of Forecast
This preview is not operational and should not be used for support decisions.

Regional Weather Roundup (RWR)

Issued by Gray - Portland, ME (GYX)

                            
000
ASUS41 KGYX 171910
RWRGYX
WEATHER ROUNDUP FOR MAINE AND NEW HAMPSHIRE
NATIONAL WEATHER SERVICE GRAY ME
300 PM EDT SAT AUG 17 2019

MEZ002-005-006-010-012-015-018-020-021-024-026-027-029-172000-
MAINE
  
CITY           SKY/WX    TMP DP  RH WIND       PRES   REMARKS
PORTLAND       CLOUDY    69  64  84 S9        30.09R                  
SANFORD        CLOUDY    68  66  93 SE7       30.08F                  
BAR HARBOR     CLOUDY    67  62  84 SW12      30.11F                  
WISCASSET      CLOUDY    68  61  78 S6        30.11F                  
ROCKLAND       CLOUDY    65  62  90 SE7       30.10F                  
FRYEBURG       CLOUDY    70  65  84 CALM      30.07F                  
LEWISTONAUBURN CLOUDY    68  65  90 SE9       30.08F                  
AUGUSTA        CLOUDY    68  63  84 S8        30.10S                  
WATERVILLE     CLOUDY    68  63  84 VRB5      30.06F                  
BANGOR         CLOUDY    71  62  73 S13       30.08F                  
GREENVILLE       N/A     62  61  96 SE5       30.07F                  
MILLINOCKET    CLOUDY    65  62  90 VRB3      30.09F                  
HOULTON        CLOUDY    67  62  84 S7        30.07F                  
PRESQUE ISLE   CLOUDY    68  61  78 S10       30.07S                  
FRENCHVILLE    CLOUDY    64  60  87 S10G20    30.05S                  
CARIBOU        NOT AVBL                                               
$$

NHZ002-005-008-009-011-012-014-172000-
NEW HAMPSHIRE
  
CITY           SKY/WX    TMP DP  RH WIND       PRES   REMARKS
PORTSMOUTH     CLOUDY    71  66  85 SE8       30.06F                  
ROCHESTER      CLOUDY    69  65  86 SE7       30.07S                  
NASHUA         CLOUDY    80  72  76 SE9       30.04F                  
MANCHESTER     PTSUNNY   79  68  69 SE9       30.02F                  
CONCORD        PTSUNNY   75  67  76 SE6       30.04F                  
LACONIA        CLOUDY    73  68  84 E5        30.06F                  
PLYMOUTH       CLOUDY    71  66  85 E3        30.04F                  
BERLIN         FAIR      77  64  64 SE9       30.03F                  
WHITEFIELD     PTSUNNY   79  62  56 SW6       30.01F                  
JAFFREY        PTSUNNY   80  66  62 S7        30.05F                  
KEENE          PTSUNNY   82  68  62 S10       30.02F                  
LEBANON        FAIR      86  65  49 S7        29.98F                  
MT WASHINGTON  PTSUNNY   55  54  94 W26G36      N/A  VSB 1            
$$

VTZ005-007-008-172000-
VERMONT
  
CITY           SKY/WX    TMP DP  RH WIND       PRES   REMARKS
ST JOHNSBURY     N/A     80  65  59 MISG      29.97F                  
MONTPELIER     PTSUNNY   79  64  60 VRB7      30.03F                  
$$

MAZ007-012-024-CTZ003-RIZ002-NYZ038-NYZ072-172000-
SOUTHERN NEW ENGLAND AND NY
  
CITY           SKY/WX    TMP DP  RH WIND       PRES   REMARKS
BOSTON         CLOUDY    73  66  78 E12       30.05F                  
NANTUCKET      FAIR      76  68  76 E9        30.05F                  
PROVIDENCE     CLOUDY    76  72  87 SE5       30.05F                  
HARTFORD       PTSUNNY   83  70  64 SE9       30.00F                  
ALBANY         PTSUNNY   87  67  51 S13       29.95F THUNDER HX  90   
NEW YORK CITY  FAIR      84  70  62 NE13      29.98F                  
$$

ANZ081-ANZ082-ANZ150-NHZ014-MEZ023>029-172000-
COASTAL MARINE OBSERVATIONS
  
STATION/POSITION TIME  TEMP    WIND        PRES    WAVE
                       AIR SEA DIR/SP/G            HT/PER
                 (UTC) (F)     (DEG/KT/KT) (MB)    (FT/S)
MATINICUS ROCK   1850   61                 1019.1F
ISLE OF SHOALS   1800   65     160/ 10/ 10 1018.0F
JEFFREYS LEDGE   1838      68                N/A     2/ 8
CASHES LEDGE BUO 1750   65 65  140/  6/  6 1019.7    2/ 8
GEORGES BANK BUO 1840   72 70   80/  6/  8 1019.0F
$$

.............KEY..............
   WCI - WIND CHILL
   TC  - TEMPERATURE IN CELSIUS
   VSB - VISIBILITY IN MILES
   HX  - HEAT INDEX
   FAIR- INDICATES FEW OR NO CLOUDS BELOW 12,000 FT, WITH NO 
         SIGNIFICANT WEATHER AND/OR OBSTRUCTIONS TO VISIBILITY.